Main page
METAR-TAF:

METAR-TAF

Airports :

Doctor Fernando Piragine Niveyro International Airport

Corrientes, Argentina

latitude: 27-27S, longitude: 058-46W, elevation: 62 m

Current weather observation

The report was made 58 minutes ago, at 13:00 UTC
Wind 5 kt from the Northeast
Temperature 31°C
Humidity 59%
Pressure 1008 hPa
Visibility 10 km or more
Few clouds at a height of 3500 ft

METAR: SARC 231300Z 05005KT 9999 FEW035 31/22 Q1008

Time: 10:58 (13:58 UTC)


TAF: missing

Weather observations and forecasts of more than 4000 airports (METAR and TAF reports).

The available stations are represented by yellow and red dots on the map.

Hover mouse over dot to see the name of the station.

Then click to see weather observations and forecasts.

To change the map : click on the green buttons with a black cross to zoom in, on the green button with a dash to zoom out, or on the green arrows for adjacent maps.


METAR-TAF: